Simultaneous Nadir Overpasses (SNOs) Predictions

Prediction of SNOs between GOES-15 and METOP-A Satellite Orbit:

Table of predicted SNOs for the next 14.0 days since TLE Epoch: 11/21/2014
Index Date Time (GOES-15) GOES-15 Lat,Lon METOP-A Lat,Lon Distance(km) Time Diff (sec)
1 11/21/2014 18:12:24 -0.24,-134.97 -1.17,-130.95 459.07 80
2 11/23/2014 06:34:04 0.22,-134.99 0.08,-135.54 62.71 80
3 11/25/2014 18:29:38 -0.21,-135.09 -0.21,-135.11 2.94 80
4 11/28/2014 06:28:00 0.20,-135.12 0.29,-134.72 46.29 80
5 11/29/2014 18:49:32 -0.18,-135.18 0.71,-139.28 466.88 80
6 11/30/2014 18:26:13 -0.19,-135.20 -0.38,-134.28 104.38 80
7 12/02/2014 06:47:54 0.17,-135.21 -0.62,-138.88 418.11 80
8 12/03/2014 06:24:35 0.19,-135.23 0.48,-133.89 152.41 80
9 12/04/2014 18:46:06
